Time,TemperatureF,DewpointF,PressureIn,WindDirection,WindDirectionDegrees,WindSpeedMPH,WindSpeedGustMPH,Humidity,HourlyPrecipIn,Conditions,Clouds,dailyrainin,SoftwareType,DateUTC
2013-05-16 00:04:00,47.8,44.1,30.03,SSE,166,13.0,20.0,87,0.00,,,0.00,Wunderground v.1.15,2013-05-16 07:04:00,
2013-05-16 00:09:00,47.7,44.0,30.03,SSE,163,12.0,20.0,87,0.00,,,0.00,Wunderground v.1.15,2013-05-16 07:09:00,
2013-05-16 00:14:00,47.6,43.9,30.03,SSE,148,11.0,16.0,87,0.00,,,0.00,Wunderground v.1.15,2013-05-16 07:14:00,
2013-05-16 00:19:00,47.6,44.2,30.03,SE,144,13.0,18.0,88,0.00,,,0.00,Wunderground v.1.15,2013-05-16 07:19:00,
2013-05-16 00:24:00,47.4,44.0,30.03,SSE,165,15.0,19.0,88,0.00,,,0.00,Wunderground v.1.15,2013-05-16 07:24:00,
2013-05-16 00:29:00,47.4,44.0,30.03,SE,143,14.0,19.0,88,0.00,,,0.00,Wunderground v.1.15,2013-05-16 07:29:00,
2013-05-16 00:35:00,47.4,44.0,30.03,South,169,13.0,18.0,88,0.00,,,0.00,Wunderground v.1.15,2013-05-16 07:35:00,
2013-05-16 00:40:00,47.4,44.3,30.03,SSE,157,11.0,11.0,89,0.00,,,0.00,Wunderground v.1.15,2013-05-16 07:40:00,
2013-05-16 00:45:00,47.3,44.2,30.03,SSE,158,11.0,18.0,89,0.00,,,0.00,Wunderground v.1.15,2013-05-16 07:45:00,
2013-05-16 00:50:00,47.3,44.5,30.03,SSE,150,11.0,18.0,90,0.00,,,0.00,Wunderground v.1.15,2013-05-16 07:50:00,
2013-05-16 00:55:00,47.3,44.5,30.03,SE,143,11.0,18.0,90,0.00,,,0.00,Wunderground v.1.15,2013-05-16 07:55:00,
2013-05-16 01:00:00,47.3,44.5,30.03,SE,144,11.0,11.0,90,0.00,,,0.00,Wunderground v.1.15,2013-05-16 08:00:00,
2013-05-16 01:06:00,47.4,44.6,30.03,SE,136,11.0,13.0,90,0.00,,,0.00,Wunderground v.1.15,2013-05-16 08:06:00,
2013-05-16 01:11:00,47.4,44.6,30.03,SSE,155,10.0,12.0,90,0.00,,,0.00,Wunderground v.1.15,2013-05-16 08:11:00,
2013-05-16 01:16:00,47.5,44.4,30.03,South,177,8.0,12.0,89,0.00,,,0.00,Wunderground v.1.15,2013-05-16 08:16:00,
2013-05-16 01:21:00,47.5,44.4,30.03,SSE,150,7.0,9.0,89,0.00,,,0.00,Wunderground v.1.15,2013-05-16 08:21:00,
2013-05-16 01:27:00,47.5,44.4,30.02,SSE,159,9.0,12.0,89,0.00,,,0.00,Wunderground v.1.15,2013-05-16 08:27:00,
2013-05-16 01:32:00,47.7,44.3,30.03,SSE,165,9.0,19.0,88,0.00,,,0.00,Wunderground v.1.15,2013-05-16 08:32:00,
2013-05-16 01:37:00,47.6,44.2,30.03,SSE,162,9.0,19.0,88,0.00,,,0.00,Wunderground v.1.15,2013-05-16 08:37:00,
2013-05-16 01:42:00,47.5,44.4,30.03,SSE,154,10.0,19.0,89,0.00,,,0.00,Wunderground v.1.15,2013-05-16 08:42:00,
2013-05-16 01:47:00,47.4,44.6,30.03,SSE,159,10.0,19.0,90,0.00,,,0.00,Wunderground v.1.15,2013-05-16 08:47:00,
2013-05-16 01:53:00,47.3,44.5,30.03,SSE,163,9.0,19.0,90,0.00,,,0.00,Wunderground v.1.15,2013-05-16 08:53:00,
2013-05-16 01:58:00,47.2,44.4,30.02,SSE,162,11.0,19.0,90,0.00,,,0.00,Wunderground v.1.15,2013-05-16 08:58:00,
2013-05-16 02:04:00,47.2,44.4,30.02,SSE,166,12.0,12.0,90,0.00,,,0.00,Wunderground v.1.15,2013-05-16 09:04:00,
2013-05-16 02:09:00,47.3,44.5,30.02,SSE,159,12.0,13.0,90,0.00,,,0.00,Wunderground v.1.15,2013-05-16 09:09:00,
2013-05-16 02:15:00,47.2,44.4,30.02,SSE,157,12.0,12.0,90,0.00,,,0.00,Wunderground v.1.15,2013-05-16 09:15:00,
2013-05-16 02:21:00,47.2,44.4,30.01,SSE,157,12.0,13.0,90,0.00,,,0.00,Wunderground v.1.15,2013-05-16 09:21:00,
2013-05-16 02:26:00,47.1,44.3,30.01,SSE,165,11.0,15.0,90,0.00,,,0.00,Wunderground v.1.15,2013-05-16 09:26:00,
2013-05-16 02:32:00,47.0,44.2,30.01,South,170,9.0,16.0,90,0.00,,,0.00,Wunderground v.1.15,2013-05-16 09:32:00,
2013-05-16 02:38:00,46.9,44.1,30.01,South,175,6.0,16.0,90,0.00,,,0.00,Wunderground v.1.15,2013-05-16 09:38:00,
2013-05-16 02:43:00,46.8,44.0,30.01,SE,146,7.0,16.0,90,0.00,,,0.00,Wunderground v.1.15,2013-05-16 09:43:00,
2013-05-16 02:48:00,46.9,44.1,30.01,SE,140,10.0,16.0,90,0.00,,,0.00,Wunderground v.1.15,2013-05-16 09:48:00,
2013-05-16 02:53:00,46.9,44.1,30.01,SSE,156,9.0,16.0,90,0.00,,,0.00,Wunderground v.1.15,2013-05-16 09:53:00,
2013-05-16 02:58:00,46.8,44.0,30.01,SE,145,6.0,16.0,90,0.00,,,0.00,Wunderground v.1.15,2013-05-16 09:58:00,
2013-05-16 03:03:00,46.7,44.2,30.01,SSE,150,5.0,11.0,91,0.00,,,0.00,Wunderground v.1.15,2013-05-16 10:03:00,
2013-05-16 03:09:00,46.7,44.2,30.01,SSE,159,6.0,11.0,91,0.00,,,0.00,Wunderground v.1.15,2013-05-16 10:09:00,
2013-05-16 03:14:00,46.7,44.5,30.01,SE,135,7.0,9.0,92,0.00,,,0.00,Wunderground v.1.15,2013-05-16 10:14:00,
2013-05-16 03:20:00,46.7,44.5,30.01,SSE,167,7.0,7.0,92,0.00,,,0.00,Wunderground v.1.15,2013-05-16 10:20:00,
2013-05-16 03:25:00,46.7,44.8,30.01,SSE,160,6.0,8.0,93,0.00,,,0.00,Wunderground v.1.15,2013-05-16 10:25:00,
2013-05-16 03:31:00,46.7,44.8,30.01,SSE,160,7.0,10.0,93,0.00,,,0.00,Wunderground v.1.15,2013-05-16 10:31:00,
2013-05-16 03:36:00,46.8,44.9,30.01,South,171,8.0,16.0,93,0.00,,,0.00,Wunderground v.1.15,2013-05-16 10:36:00,
2013-05-16 03:41:00,46.8,44.9,30.01,SE,131,7.0,16.0,93,0.00,,,0.00,Wunderground v.1.15,2013-05-16 10:41:00,
2013-05-16 03:46:00,46.9,45.0,30.01,SE,146,6.0,16.0,93,0.00,,,0.00,Wunderground v.1.15,2013-05-16 10:46:00,
2013-05-16 03:51:00,47.0,45.4,30.01,SE,144,7.0,16.0,94,0.00,,,0.00,Wunderground v.1.15,2013-05-16 10:51:00,
2013-05-16 03:56:00,47.1,45.5,30.01,SSE,153,7.0,16.0,94,0.00,,,0.00,Wunderground v.1.15,2013-05-16 10:56:00,
2013-05-16 04:01:00,47.2,45.6,30.01,SE,144,8.0,8.0,94,0.00,,,0.00,Wunderground v.1.15,2013-05-16 11:01:00,
2013-05-16 04:06:00,47.2,45.6,30.01,SSE,165,7.0,9.0,94,0.00,,,0.00,Wunderground v.1.15,2013-05-16 11:06:00,
2013-05-16 04:12:00,47.3,45.7,30.01,SSE,150,7.0,7.0,94,0.00,,,0.00,Wunderground v.1.15,2013-05-16 11:12:00,
2013-05-16 04:17:00,47.3,45.7,30.01,SE,137,6.0,7.0,94,0.00,,,0.00,Wunderground v.1.15,2013-05-16 11:17:00,
2013-05-16 04:22:00,47.7,45.8,30.01,SSW,204,6.0,6.0,93,0.00,,,0.00,Wunderground v.1.15,2013-05-16 11:22:00,
2013-05-16 04:27:00,48.2,46.0,30.01,South,182,5.0,6.0,92,0.00,,,0.00,Wunderground v.1.15,2013-05-16 11:27:00,
2013-05-16 04:32:00,48.2,46.0,30.01,SW,223,3.0,13.0,92,0.00,,,0.00,Wunderground v.1.15,2013-05-16 11:32:00,
2013-05-16 04:38:00,48.2,46.0,30.01,South,171,3.0,13.0,92,0.00,,,0.00,Wunderground v.1.15,2013-05-16 11:38:00,
2013-05-16 04:43:00,47.9,45.7,30.00,SSW,196,4.0,13.0,92,0.00,,,0.00,Wunderground v.1.15,2013-05-16 11:43:00,
2013-05-16 04:48:00,47.8,45.9,30.00,SSE,163,4.0,13.0,93,0.00,,,0.00,Wunderground v.1.15,2013-05-16 11:48:00,
2013-05-16 04:53:00,47.7,45.8,30.00,SSE,162,3.0,13.0,93,0.00,,,0.00,Wunderground v.1.15,2013-05-16 11:53:00,
2013-05-16 04:58:00,47.7,45.8,30.00,SSE,166,4.0,13.0,93,0.00,,,0.00,Wunderground v.1.15,2013-05-16 11:58:00,
2013-05-16 05:04:00,47.6,45.7,30.00,South,169,4.0,4.0,93,0.00,,,0.00,Wunderground v.1.15,2013-05-16 12:04:00,
2013-05-16 05:10:00,47.7,45.8,30.00,South,182,2.0,2.0,93,0.00,,,0.00,Wunderground v.1.15,2013-05-16 12:10:00,
2013-05-16 05:15:00,47.7,45.8,30.00,South,169,3.0,6.0,93,0.00,,,0.00,Wunderground v.1.15,2013-05-16 12:15:00,
2013-05-16 05:20:00,47.8,45.9,30.01,SE,144,3.0,3.0,93,0.00,,,0.00,Wunderground v.1.15,2013-05-16 12:20:00,
2013-05-16 05:26:00,47.9,46.0,30.01,South,173,3.0,5.0,93,0.00,,,0.00,Wunderground v.1.15,2013-05-16 12:26:00,
2013-05-16 05:31:00,47.9,46.0,30.01,SSE,167,3.0,10.0,93,0.00,,,0.00,Wunderground v.1.15,2013-05-16 12:31:00,
2013-05-16 05:36:00,47.9,46.0,30.01,WSW,237,2.0,10.0,93,0.00,,,0.00,Wunderground v.1.15,2013-05-16 12:36:00,
2013-05-16 05:41:00,47.9,46.0,30.01,South,171,3.0,10.0,93,0.00,,,0.00,Wunderground v.1.15,2013-05-16 12:41:00,
2013-05-16 05:46:00,47.9,46.0,30.01,SSE,157,4.0,10.0,93,0.00,,,0.00,Wunderground v.1.15,2013-05-16 12:46:00,
2013-05-16 05:52:00,47.9,46.0,30.01,SSE,162,5.0,10.0,93,0.00,,,0.00,Wunderground v.1.15,2013-05-16 12:52:00,
2013-05-16 05:57:00,47.9,46.0,30.01,SSE,167,6.0,10.0,93,0.00,,,0.00,Wunderground v.1.15,2013-05-16 12:57:00,
2013-05-16 06:02:00,47.9,46.3,30.01,SSE,155,6.0,10.0,94,0.00,,,0.00,Wunderground v.1.15,2013-05-16 13:02:00,
2013-05-16 06:07:00,47.9,46.3,30.02,SSE,157,7.0,10.0,94,0.00,,,0.00,Wunderground v.1.15,2013-05-16 13:07:00,
2013-05-16 06:12:00,47.9,46.3,30.02,South,173,6.0,10.0,94,0.00,,,0.00,Wunderground v.1.15,2013-05-16 13:12:00,
2013-05-16 06:18:00,48.1,46.5,30.02,SSE,154,3.0,10.0,94,0.00,,,0.00,Wunderground v.1.15,2013-05-16 13:18:00,
2013-05-16 06:23:00,48.3,46.7,30.02,ENE,57,1.0,10.0,94,0.00,,,0.00,Wunderground v.1.15,2013-05-16 13:23:00,
2013-05-16 06:28:00,48.9,46.4,30.02,ENE,57,0.0,10.0,91,0.00,,,0.00,Wunderground v.1.15,2013-05-16 13:28:00,
2013-05-16 06:33:00,49.7,46.6,30.02,West,275,0.0,10.0,89,0.00,,,0.00,Wunderground v.1.15,2013-05-16 13:33:00,
2013-05-16 06:38:00,50.4,47.0,30.02,WSW,242,1.0,10.0,88,0.00,,,0.00,Wunderground v.1.15,2013-05-16 13:38:00,
2013-05-16 06:44:00,50.4,47.3,30.02,South,169,1.0,10.0,89,0.00,,,0.00,Wunderground v.1.15,2013-05-16 13:44:00,
2013-05-16 06:49:00,49.9,47.4,30.02,SSE,159,2.0,10.0,91,0.00,,,0.00,Wunderground v.1.15,2013-05-16 13:49:00,
2013-05-16 06:54:00,49.5,47.3,30.03,SSE,161,2.0,10.0,92,0.00,,,0.00,Wunderground v.1.15,2013-05-16 13:54:00,
2013-05-16 06:59:00,49.2,47.3,30.03,SE,141,2.0,10.0,93,0.00,,,0.00,Wunderground v.1.15,2013-05-16 13:59:00,
2013-05-16 07:04:00,48.9,47.0,30.03,SSE,160,2.0,10.0,93,0.00,,,0.00,Wunderground v.1.15,2013-05-16 14:04:00,
2013-05-16 07:10:00,49.0,47.3,30.03,SE,126,1.0,10.0,94,0.00,,,0.00,Wunderground v.1.15,2013-05-16 14:10:00,
2013-05-16 07:15:00,49.0,47.3,30.03,SSW,195,1.0,10.0,94,0.00,,,0.00,Wunderground v.1.15,2013-05-16 14:15:00,
2013-05-16 07:20:00,49.0,47.3,30.03,NW,319,1.0,10.0,94,0.00,,,0.00,Wunderground v.1.15,2013-05-16 14:20:00,
2013-05-16 07:25:00,49.1,47.4,30.03,SE,130,2.0,10.0,94,0.00,,,0.01,Wunderground v.1.15,2013-05-16 14:25:00,
2013-05-16 07:30:00,49.1,47.4,30.03,SSE,150,3.0,10.0,94,0.00,,,0.01,Wunderground v.1.15,2013-05-16 14:30:00,
2013-05-16 07:36:00,49.0,47.3,30.04,SSE,166,3.0,10.0,94,0.00,,,0.01,Wunderground v.1.15,2013-05-16 14:36:00,
2013-05-16 07:41:00,49.0,47.6,30.04,South,175,3.0,10.0,95,0.00,,,0.01,Wunderground v.1.15,2013-05-16 14:41:00,
2013-05-16 07:46:00,49.0,47.6,30.04,SSE,153,4.0,10.0,95,0.00,,,0.01,Wunderground v.1.15,2013-05-16 14:46:00,
2013-05-16 07:51:00,49.0,47.6,30.04,South,178,4.0,10.0,95,0.00,,,0.01,Wunderground v.1.15,2013-05-16 14:51:00,
2013-05-16 07:56:00,48.9,47.5,30.04,SSE,167,4.0,10.0,95,0.00,,,0.02,Wunderground v.1.15,2013-05-16 14:56:00,
2013-05-16 08:02:00,48.9,47.5,30.04,South,178,3.0,10.0,95,0.00,,,0.02,Wunderground v.1.15,2013-05-16 15:02:00,
2013-05-16 08:07:00,49.1,48.0,30.04,SSE,167,3.0,10.0,96,0.00,,,0.02,Wunderground v.1.15,2013-05-16 15:07:00,
2013-05-16 08:12:00,49.3,48.2,30.04,South,171,4.0,10.0,96,0.00,,,0.02,Wunderground v.1.15,2013-05-16 15:12:00,
2013-05-16 08:17:00,49.5,48.4,30.04,South,186,3.0,10.0,96,0.00,,,0.02,Wunderground v.1.15,2013-05-16 15:17:00,
2013-05-16 08:22:00,49.5,48.4,30.05,SSE,160,3.0,10.0,96,0.00,,,0.02,Wunderground v.1.15,2013-05-16 15:22:00,
2013-05-16 08:28:00,49.6,48.5,30.05,South,178,3.0,10.0,96,0.00,,,0.02,Wunderground v.1.15,2013-05-16 15:28:00,
2013-05-16 08:33:00,49.8,48.7,30.05,South,175,3.0,10.0,96,0.00,,,0.02,Wunderground v.1.15,2013-05-16 15:33:00,
2013-05-16 08:38:00,50.3,49.2,30.05,South,178,2.0,10.0,96,0.00,,,0.02,Wunderground v.1.15,2013-05-16 15:38:00,
2013-05-16 08:43:00,50.3,49.2,30.05,SSW,196,2.0,10.0,96,0.00,,,0.02,Wunderground v.1.15,2013-05-16 15:43:00,
2013-05-16 08:48:00,50.3,49.2,30.05,SSW,196,2.0,10.0,96,0.00,,,0.02,Wunderground v.1.15,2013-05-16 15:48:00,
2013-05-16 08:53:00,50.3,49.2,30.04,SSE,166,2.0,10.0,96,0.00,,,0.02,Wunderground v.1.15,2013-05-16 15:53:00,
2013-05-16 08:59:00,50.1,49.0,30.04,SW,214,2.0,10.0,96,0.00,,,0.02,Wunderground v.1.15,2013-05-16 15:59:00,
2013-05-16 09:04:00,50.3,49.2,30.04,SSE,167,2.0,10.0,96,0.00,,,0.03,Wunderground v.1.15,2013-05-16 16:04:00,
2013-05-16 09:09:00,50.2,49.1,30.04,South,170,2.0,10.0,96,0.00,,,0.03,Wunderground v.1.15,2013-05-16 16:09:00,
2013-05-16 09:14:00,50.3,49.2,30.05,SSE,168,3.0,10.0,96,0.00,,,0.03,Wunderground v.1.15,2013-05-16 16:14:00,
2013-05-16 09:20:00,50.5,49.4,30.05,SSW,202,3.0,10.0,96,0.00,,,0.03,Wunderground v.1.15,2013-05-16 16:20:00,
2013-05-16 09:25:00,50.6,49.5,30.05,South,188,3.0,10.0,96,0.00,,,0.03,Wunderground v.1.15,2013-05-16 16:25:00,
2013-05-16 09:30:00,50.8,49.7,30.05,South,180,3.0,10.0,96,0.00,,,0.03,Wunderground v.1.15,2013-05-16 16:30:00,
2013-05-16 09:35:00,50.6,49.5,30.05,South,178,4.0,10.0,96,0.00,,,0.03,Wunderground v.1.15,2013-05-16 16:35:00,
2013-05-16 09:40:00,50.8,49.7,30.05,South,188,3.0,3.0,96,0.00,,,0.03,Wunderground v.1.15,2013-05-16 16:40:00,
2013-05-16 09:46:00,50.9,49.8,30.05,SSW,208,2.0,10.0,96,0.00,,,0.03,Wunderground v.1.15,2013-05-16 16:46:00,
2013-05-16 09:51:00,51.3,50.2,30.05,South,181,3.0,10.0,96,0.00,,,0.03,Wunderground v.1.15,2013-05-16 16:51:00,
2013-05-16 09:56:00,52.0,51.2,30.05,South,183,3.0,10.0,97,0.00,,,0.03,Wunderground v.1.15,2013-05-16 16:56:00,
2013-05-16 10:01:00,52.2,51.1,30.05,SW,227,3.0,10.0,96,0.00,,,0.03,Wunderground v.1.15,2013-05-16 17:01:00,
2013-05-16 10:06:00,51.9,50.8,30.05,SSW,209,3.0,10.0,96,0.00,,,0.03,Wunderground v.1.15,2013-05-16 17:06:00,
2013-05-16 10:12:00,51.8,50.7,30.05,SSW,200,4.0,10.0,96,0.00,,,0.03,Wunderground v.1.15,2013-05-16 17:12:00,
2013-05-16 10:17:00,51.8,50.7,30.05,WSW,255,4.0,10.0,96,0.00,,,0.03,Wunderground v.1.15,2013-05-16 17:17:00,
2013-05-16 10:22:00,51.7,50.6,30.05,SSW,203,4.0,10.0,96,0.00,,,0.03,Wunderground v.1.15,2013-05-16 17:22:00,
2013-05-16 10:27:00,51.9,50.8,30.05,West,267,3.0,10.0,96,0.00,,,0.03,Wunderground v.1.15,2013-05-16 17:27:00,
2013-05-16 10:32:00,51.9,50.8,30.05,SSW,211,3.0,10.0,96,0.00,,,0.03,Wunderground v.1.15,2013-05-16 17:32:00,
2013-05-16 10:38:00,52.2,51.1,30.05,SSW,210,4.0,10.0,96,0.00,,,0.03,Wunderground v.1.15,2013-05-16 17:38:00,
2013-05-16 10:43:00,52.5,51.4,30.05,SSW,202,4.0,10.0,96,0.00,,,0.03,Wunderground v.1.15,2013-05-16 17:43:00,
2013-05-16 10:48:00,52.6,51.2,30.05,SW,217,4.0,10.0,95,0.00,,,0.03,Wunderground v.1.15,2013-05-16 17:48:00,
2013-05-16 10:53:00,53.0,51.6,30.05,SSW,202,4.0,10.0,95,0.00,,,0.03,Wunderground v.1.15,2013-05-16 17:53:00,
2013-05-16 10:58:00,53.1,51.7,30.05,SW,214,4.0,10.0,95,0.00,,,0.03,Wunderground v.1.15,2013-05-16 17:58:00,
2013-05-16 11:03:00,53.1,51.4,30.05,SW,229,4.0,10.0,94,0.00,,,0.03,Wunderground v.1.15,2013-05-16 18:03:00,
2013-05-16 11:08:00,53.0,51.3,30.05,WSW,239,4.0,10.0,94,0.00,,,0.03,Wunderground v.1.15,2013-05-16 18:08:00,
2013-05-16 11:13:00,53.1,51.4,30.05,WSW,241,3.0,10.0,94,0.00,,,0.03,Wunderground v.1.15,2013-05-16 18:13:00,
2013-05-16 11:18:00,53.2,51.5,30.05,SW,227,2.0,10.0,94,0.00,,,0.03,Wunderground v.1.15,2013-05-16 18:18:00,
2013-05-16 11:23:00,53.7,52.3,30.05,WSW,255,2.0,10.0,95,0.00,,,0.03,Wunderground v.1.15,2013-05-16 18:23:00,
2013-05-16 11:28:00,54.1,52.4,30.05,WSW,250,1.0,10.0,94,0.00,,,0.03,Wunderground v.1.15,2013-05-16 18:28:00,
2013-05-16 11:34:00,53.8,51.8,30.05,SW,223,2.0,10.0,93,0.00,,,0.03,Wunderground v.1.15,2013-05-16 18:34:00,
2013-05-16 11:39:00,53.9,51.9,30.05,SW,216,3.0,10.0,93,0.00,,,0.03,Wunderground v.1.15,2013-05-16 18:39:00,
2013-05-16 11:44:00,54.1,52.7,30.05,WSW,255,2.0,10.0,95,0.00,,,0.03,Wunderground v.1.15,2013-05-16 18:44:00,
2013-05-16 11:49:00,54.7,53.0,30.05,WSW,246,2.0,10.0,94,0.00,,,0.03,Wunderground v.1.15,2013-05-16 18:49:00,
2013-05-16 11:54:00,55.2,52.9,30.05,SW,222,2.0,10.0,92,0.00,,,0.03,Wunderground v.1.15,2013-05-16 18:54:00,
2013-05-16 12:00:00,55.7,53.4,30.05,WNW,300,3.0,10.0,92,0.00,,,0.03,Wunderground v.1.15,2013-05-16 19:00:00,
2013-05-16 12:05:00,55.9,53.6,30.05,WSW,240,3.0,10.0,92,0.00,,,0.03,Wunderground v.1.15,2013-05-16 19:05:00,
2013-05-16 12:10:00,55.6,52.4,30.05,SW,214,3.0,10.0,89,0.00,,,0.03,Wunderground v.1.15,2013-05-16 19:10:00,
2013-05-16 12:15:00,55.4,52.8,30.05,WNW,287,3.0,10.0,91,0.00,,,0.03,Wunderground v.1.15,2013-05-16 19:15:00,
2013-05-16 12:20:00,55.7,53.1,30.05,WSW,255,2.0,10.0,91,0.00,,,0.03,Wunderground v.1.15,2013-05-16 19:20:00,
2013-05-16 12:26:00,56.1,52.9,30.05,SW,221,3.0,10.0,89,0.00,,,0.03,Wunderground v.1.15,2013-05-16 19:26:00,
2013-05-16 12:31:00,55.8,52.9,30.05,SW,232,3.0,10.0,90,0.00,,,0.03,Wunderground v.1.15,2013-05-16 19:31:00,
2013-05-16 12:36:00,55.8,52.9,30.05,SW,219,3.0,10.0,90,0.00,,,0.03,Wunderground v.1.15,2013-05-16 19:36:00,
2013-05-16 12:41:00,56.3,53.1,30.05,WSW,240,3.0,10.0,89,0.00,,,0.03,Wunderground v.1.15,2013-05-16 19:41:00,
2013-05-16 12:46:00,56.9,53.1,30.05,WNW,290,3.0,10.0,87,0.00,,,0.03,Wunderground v.1.15,2013-05-16 19:46:00,
2013-05-16 12:52:00,57.1,53.0,30.04,West,272,3.0,10.0,86,0.00,,,0.03,Wunderground v.1.15,2013-05-16 19:52:00,
2013-05-16 12:57:00,57.6,53.1,30.04,SW,232,2.0,10.0,85,0.00,,,0.03,Wunderground v.1.15,2013-05-16 19:57:00,
2013-05-16 13:02:00,58.6,53.5,30.04,SW,220,3.0,10.0,83,0.00,,,0.03,Wunderground v.1.15,2013-05-16 20:02:00,
2013-05-16 13:07:00,59.0,52.5,30.04,SW,216,3.0,10.0,79,0.00,,,0.03,Wunderground v.1.15,2013-05-16 20:07:00,
2013-05-16 13:12:00,58.9,53.1,30.04,SSW,212,3.0,10.0,81,0.00,,,0.03,Wunderground v.1.15,2013-05-16 20:12:00,
2013-05-16 13:18:00,59.2,53.4,30.04,WNW,285,3.0,10.0,81,0.00,,,0.03,Wunderground v.1.15,2013-05-16 20:18:00,
2013-05-16 13:23:00,59.9,53.7,30.04,West,275,3.0,10.0,80,0.00,,,0.03,Wunderground v.1.15,2013-05-16 20:23:00,
2013-05-16 13:28:00,60.5,53.6,30.04,West,275,2.0,10.0,78,0.00,,,0.03,Wunderground v.1.15,2013-05-16 20:28:00,
2013-05-16 13:33:00,60.9,53.6,30.03,WSW,252,2.0,10.0,77,0.00,,,0.03,Wunderground v.1.15,2013-05-16 20:33:00,
2013-05-16 13:38:00,61.4,51.1,30.04,WSW,241,2.0,10.0,69,0.00,,,0.03,Wunderground v.1.15,2013-05-16 20:38:00,
2013-05-16 13:44:00,62.3,51.6,30.03,SSW,211,3.0,10.0,68,0.00,,,0.03,Wunderground v.1.15,2013-05-16 20:44:00,
2013-05-16 13:49:00,62.7,52.0,30.03,SSW,202,4.0,10.0,68,0.00,,,0.03,Wunderground v.1.15,2013-05-16 20:49:00,
2013-05-16 13:54:00,63.7,52.5,30.03,WSW,251,5.0,10.0,67,0.00,,,0.03,Wunderground v.1.15,2013-05-16 20:54:00,
2013-05-16 13:59:00,63.2,51.6,30.03,SW,223,4.0,10.0,66,0.00,,,0.03,Wunderground v.1.15,2013-05-16 20:59:00,
2013-05-16 14:04:00,62.0,50.1,30.03,SW,226,5.0,10.0,65,0.00,,,0.03,Wunderground v.1.15,2013-05-16 21:04:00,
2013-05-16 14:10:00,61.5,51.6,30.03,SW,229,5.0,10.0,70,0.00,,,0.03,Wunderground v.1.15,2013-05-16 21:10:00,
2013-05-16 14:15:00,61.3,50.6,30.03,SW,232,5.0,10.0,68,0.00,,,0.03,Wunderground v.1.15,2013-05-16 21:15:00,
2013-05-16 14:20:00,62.4,52.1,30.03,WSW,240,5.0,10.0,69,0.00,,,0.03,Wunderground v.1.15,2013-05-16 21:20:00,
2013-05-16 14:25:00,64.7,50.9,30.03,SW,229,6.0,10.0,61,0.00,,,0.03,Wunderground v.1.15,2013-05-16 21:25:00,
2013-05-16 14:30:00,65.9,50.7,30.03,SW,235,5.0,5.0,58,0.00,,,0.03,Wunderground v.1.15,2013-05-16 21:30:00,
2013-05-16 14:36:00,66.5,51.3,30.02,NW,313,3.0,10.0,58,0.00,,,0.03,Wunderground v.1.15,2013-05-16 21:36:00,
2013-05-16 14:41:00,65.7,49.6,30.02,SSW,211,3.0,4.0,56,0.00,,,0.03,Wunderground v.1.15,2013-05-16 21:41:00,
2013-05-16 14:46:00,65.9,50.2,30.02,WNW,284,3.0,10.0,57,0.00,,,0.03,Wunderground v.1.15,2013-05-16 21:46:00,
2013-05-16 14:51:00,66.3,50.6,30.02,West,269,3.0,4.0,57,0.00,,,0.03,Wunderground v.1.15,2013-05-16 21:51:00,
2013-05-16 14:56:00,66.1,49.9,30.02,WNW,300,3.0,10.0,56,0.00,,,0.03,Wunderground v.1.15,2013-05-16 21:56:00,
2013-05-16 15:02:00,65.7,50.0,30.02,SW,221,3.0,10.0,57,0.00,,,0.03,Wunderground v.1.15,2013-05-16 22:02:00,
2013-05-16 15:07:00,66.4,51.2,30.02,WSW,257,4.0,10.0,58,0.00,,,0.03,Wunderground v.1.15,2013-05-16 22:07:00,
2013-05-16 15:12:00,66.3,49.2,30.03,SW,232,4.0,10.0,54,0.00,,,0.03,Wunderground v.1.15,2013-05-16 22:12:00,
2013-05-16 15:17:00,66.7,49.0,30.02,West,269,3.0,10.0,53,0.00,,,0.03,Wunderground v.1.15,2013-05-16 22:17:00,
2013-05-16 15:22:00,66.3,49.2,30.02,WNW,283,4.0,10.0,54,0.00,,,0.03,Wunderground v.1.15,2013-05-16 22:22:00,
2013-05-16 15:28:00,66.2,48.0,30.02,West,275,4.0,10.0,52,0.00,,,0.03,Wunderground v.1.15,2013-05-16 22:28:00,
2013-05-16 15:35:00,66.1,49.9,30.02,West,279,3.0,10.0,56,0.00,,,0.03,Wunderground v.1.15,2013-05-16 22:35:00,
2013-05-16 15:40:00,67.0,48.8,30.02,West,280,3.0,10.0,52,0.00,,,0.03,Wunderground v.1.15,2013-05-16 22:40:00,
2013-05-16 15:46:00,65.9,47.3,30.02,West,273,3.0,10.0,51,0.00,,,0.03,Wunderground v.1.15,2013-05-16 22:46:00,
2013-05-16 15:51:00,65.0,49.4,30.02,WSW,252,3.0,10.0,57,0.00,,,0.03,Wunderground v.1.15,2013-05-16 22:51:00,
2013-05-16 15:56:00,65.0,48.4,30.02,WNW,298,2.0,10.0,55,0.00,,,0.03,Wunderground v.1.15,2013-05-16 22:56:00,
2013-05-16 16:01:00,64.5,47.0,30.02,NW,319,3.0,4.0,53,0.00,,,0.03,Wunderground v.1.15,2013-05-16 23:01:00,
2013-05-16 16:06:00,64.9,46.3,30.02,WNW,296,3.0,10.0,51,0.00,,,0.03,Wunderground v.1.15,2013-05-16 23:06:00,
2013-05-16 16:11:00,64.2,46.7,30.02,West,261,3.0,10.0,53,0.00,,,0.03,Wunderground v.1.15,2013-05-16 23:11:00,
2013-05-16 16:16:00,64.2,47.2,30.02,WSW,251,3.0,10.0,54,0.00,,,0.03,Wunderground v.1.15,2013-05-16 23:16:00,
2013-05-16 16:21:00,63.0,47.5,30.02,WNW,283,3.0,10.0,57,0.00,,,0.03,Wunderground v.1.15,2013-05-16 23:21:00,
2013-05-16 16:26:00,63.6,47.6,30.01,West,270,2.0,10.0,56,0.00,,,0.03,Wunderground v.1.15,2013-05-16 23:26:00,
2013-05-16 16:32:00,63.7,47.2,30.02,West,279,3.0,10.0,55,0.00,,,0.03,Wunderground v.1.15,2013-05-16 23:32:00,
2013-05-16 16:37:00,62.0,46.6,30.02,West,273,3.0,10.0,57,0.00,,,0.03,Wunderground v.1.15,2013-05-16 23:37:00,
2013-05-16 16:43:00,60.0,46.5,30.02,WNW,288,3.0,10.0,61,0.00,,,0.03,Wunderground v.1.15,2013-05-16 23:43:00,
2013-05-16 16:48:00,58.6,46.5,30.02,WNW,300,3.0,10.0,64,0.00,,,0.03,Wunderground v.1.15,2013-05-16 23:48:00,
2013-05-16 16:53:00,58.6,46.5,30.02,SSW,207,3.0,10.0,64,0.00,,,0.03,Wunderground v.1.15,2013-05-16 23:53:00,
2013-05-16 16:59:00,60.0,47.8,30.02,WNW,295,2.0,10.0,64,0.00,,,0.03,Wunderground v.1.15,2013-05-16 23:59:00,
2013-05-16 17:04:00,61.0,47.0,30.02,WNW,283,2.0,10.0,60,0.00,,,0.03,Wunderground v.1.15,2013-05-17 00:04:00,
2013-05-16 17:09:00,61.7,47.2,30.01,West,276,2.0,10.0,59,0.00,,,0.03,Wunderground v.1.15,2013-05-17 00:09:00,
2013-05-16 17:14:00,61.1,46.7,30.01,WSW,255,2.0,10.0,59,0.00,,,0.03,Wunderground v.1.15,2013-05-17 00:14:00,
2013-05-16 17:19:00,60.6,46.2,30.01,West,265,3.0,10.0,59,0.00,,,0.03,Wunderground v.1.15,2013-05-17 00:19:00,
2013-05-16 17:24:00,60.8,46.4,30.01,West,275,3.0,10.0,59,0.00,,,0.03,Wunderground v.1.15,2013-05-17 00:24:00,
2013-05-16 17:30:00,60.5,45.6,30.01,WNW,286,3.0,10.0,58,0.00,,,0.03,Wunderground v.1.15,2013-05-17 00:30:00,
2013-05-16 17:35:00,60.5,45.6,30.01,West,279,4.0,10.0,58,0.00,,,0.03,Wunderground v.1.15,2013-05-17 00:35:00,
2013-05-16 17:40:00,59.8,45.4,30.01,West,259,3.0,3.0,59,0.00,,,0.03,Wunderground v.1.15,2013-05-17 00:40:00,
2013-05-16 17:45:00,59.2,46.2,30.00,WSW,258,3.0,10.0,62,0.00,,,0.03,Wunderground v.1.15,2013-05-17 00:45:00,
2013-05-16 17:50:00,58.8,45.4,30.00,West,279,3.0,3.0,61,0.00,,,0.03,Wunderground v.1.15,2013-05-17 00:50:00,
2013-05-16 17:56:00,58.5,45.9,30.00,West,281,2.0,10.0,63,0.00,,,0.03,Wunderground v.1.15,2013-05-17 00:56:00,
2013-05-16 18:01:00,58.1,45.1,30.00,West,267,2.0,10.0,62,0.00,,,0.03,Wunderground v.1.15,2013-05-17 01:01:00,
2013-05-16 18:06:00,57.6,45.1,30.00,West,263,2.0,10.0,63,0.00,,,0.03,Wunderground v.1.15,2013-05-17 01:06:00,
2013-05-16 18:11:00,56.6,45.0,30.01,West,280,2.0,10.0,65,0.00,,,0.03,Wunderground v.1.15,2013-05-17 01:11:00,
2013-05-16 18:16:00,55.0,44.6,30.00,SW,229,2.0,10.0,68,0.00,,,0.03,Wunderground v.1.15,2013-05-17 01:16:00,
2013-05-16 18:22:00,53.9,44.3,30.00,SW,234,3.0,10.0,70,0.00,,,0.03,Wunderground v.1.15,2013-05-17 01:22:00,
2013-05-16 18:27:00,54.3,45.1,30.00,West,261,5.0,10.0,71,0.00,,,0.03,Wunderground v.1.15,2013-05-17 01:27:00,
2013-05-16 18:32:00,55.1,45.1,30.00,South,190,5.0,10.0,69,0.00,,,0.03,Wunderground v.1.15,2013-05-17 01:32:00,
2013-05-16 18:37:00,55.1,45.1,30.00,SW,236,5.0,10.0,69,0.00,,,0.03,Wunderground v.1.15,2013-05-17 01:37:00,
2013-05-16 18:42:00,54.9,44.1,29.99,South,185,5.0,7.0,67,0.00,,,0.03,Wunderground v.1.15,2013-05-17 01:42:00,
2013-05-16 18:48:00,54.6,45.0,29.99,SW,225,5.0,10.0,70,0.00,,,0.03,Wunderground v.1.15,2013-05-17 01:48:00,
2013-05-16 18:53:00,54.5,45.3,29.99,WSW,248,5.0,10.0,71,0.00,,,0.03,Wunderground v.1.15,2013-05-17 01:53:00,
2013-05-16 18:58:00,54.2,45.7,29.99,WSW,246,5.0,10.0,73,0.00,,,0.03,Wunderground v.1.15,2013-05-17 01:58:00,
2013-05-16 19:03:00,54.0,45.5,30.00,West,270,4.0,5.0,73,0.00,,,0.03,Wunderground v.1.15,2013-05-17 02:03:00,
2013-05-16 19:08:00,53.9,45.8,30.00,WNW,292,2.0,5.0,74,0.00,,,0.03,Wunderground v.1.15,2013-05-17 02:08:00,
2013-05-16 19:14:00,53.9,45.8,30.00,South,188,1.0,2.0,74,0.00,,,0.03,Wunderground v.1.15,2013-05-17 02:14:00,
2013-05-16 19:19:00,52.9,45.9,30.00,SW,222,2.0,4.0,77,0.00,,,0.03,Wunderground v.1.15,2013-05-17 02:19:00,
2013-05-16 19:24:00,51.7,46.1,30.00,WSW,240,2.0,4.0,81,0.00,,,0.03,Wunderground v.1.15,2013-05-17 02:24:00,
2013-05-16 19:29:00,51.3,46.0,30.00,SW,221,1.0,4.0,82,0.00,,,0.03,Wunderground v.1.15,2013-05-17 02:29:00,
2013-05-16 19:34:00,51.1,45.8,30.00,SW,235,1.0,12.0,82,0.00,,,0.03,Wunderground v.1.15,2013-05-17 02:34:00,
2013-05-16 19:40:00,50.5,45.5,30.01,North,10,1.0,1.0,83,0.00,,,0.03,Wunderground v.1.15,2013-05-17 02:40:00,
2013-05-16 19:45:00,50.0,45.4,30.01,SW,217,1.0,12.0,84,0.00,,,0.03,Wunderground v.1.15,2013-05-17 02:45:00,
2013-05-16 19:50:00,49.7,45.4,30.01,South,177,1.0,1.0,85,0.00,,,0.03,Wunderground v.1.15,2013-05-17 02:50:00,
2013-05-16 19:55:00,49.6,45.0,30.01,SW,227,1.0,12.0,84,0.00,,,0.03,Wunderground v.1.15,2013-05-17 02:55:00,
2013-05-16 20:00:00,49.2,44.6,30.00,South,180,2.0,3.0,84,0.00,,,0.03,Wunderground v.1.15,2013-05-17 03:00:00,
2013-05-16 20:06:00,48.9,44.3,30.00,SSE,168,3.0,6.0,84,0.00,,,0.03,Wunderground v.1.15,2013-05-17 03:06:00,
2013-05-16 20:11:00,48.6,43.7,30.00,SSE,167,3.0,5.0,83,0.00,,,0.03,Wunderground v.1.15,2013-05-17 03:11:00,
2013-05-16 20:16:00,48.5,43.3,30.00,WSW,247,3.0,5.0,82,0.00,,,0.03,Wunderground v.1.15,2013-05-17 03:16:00,
2013-05-16 20:21:00,48.3,43.4,30.00,SSE,168,2.0,2.0,83,0.00,,,0.03,Wunderground v.1.15,2013-05-17 03:21:00,
2013-05-16 20:26:00,48.0,43.4,30.00,WSW,248,2.0,3.0,84,0.00,,,0.03,Wunderground v.1.15,2013-05-17 03:26:00,
2013-05-16 20:32:00,47.9,42.7,30.00,SW,232,2.0,5.0,82,0.00,,,0.03,Wunderground v.1.15,2013-05-17 03:32:00,
2013-05-16 20:37:00,48.0,42.8,30.00,SW,236,2.0,5.0,82,0.00,,,0.03,Wunderground v.1.15,2013-05-17 03:37:00,
2013-05-16 20:42:00,47.9,43.3,30.01,WSW,237,1.0,5.0,84,0.00,,,0.03,Wunderground v.1.15,2013-05-17 03:42:00,
2013-05-16 20:47:00,47.7,43.1,30.01,South,183,1.0,5.0,84,0.00,,,0.03,Wunderground v.1.15,2013-05-17 03:47:00,
2013-05-16 20:52:00,47.4,42.8,30.01,South,171,1.0,5.0,84,0.00,,,0.03,Wunderground v.1.15,2013-05-17 03:52:00,
2013-05-16 20:58:00,47.2,42.9,30.01,South,169,2.0,5.0,85,0.00,,,0.03,Wunderground v.1.15,2013-05-17 03:58:00,
2013-05-16 21:01:00,47.3,43.0,30.01,SSE,161,3.0,6.0,85,0.00,,,0.03,Wunderground v.1.15,2013-05-17 04:01:00,
2013-05-16 21:03:00,47.3,42.7,30.01,SSW,194,3.0,6.0,84,0.00,,,0.03,Wunderground v.1.15,2013-05-17 04:03:00,
2013-05-16 21:04:00,47.4,42.8,30.01,SSW,213,4.0,6.0,84,0.00,,,0.03,Wunderground v.1.15,2013-05-17 04:04:00,
2013-05-16 21:09:00,47.3,43.0,30.01,WSW,239,3.0,6.0,85,0.00,,,0.03,Wunderground v.1.15,2013-05-17 04:09:00,
2013-05-16 21:10:00,47.3,43.3,30.01,SW,234,3.0,4.0,86,0.00,,,0.03,Wunderground v.1.15,2013-05-17 04:10:00,
2013-05-16 21:15:00,47.2,43.8,30.01,SW,229,3.0,4.0,88,0.00,,,0.03,Wunderground v.1.15,2013-05-17 04:15:00,
2013-05-16 21:18:00,47.2,43.8,30.01,SW,218,3.0,4.0,88,0.00,,,0.03,Wunderground v.1.15,2013-05-17 04:18:00,
2013-05-16 21:24:00,47.0,43.9,30.01,SSW,202,2.0,3.0,89,0.00,,,0.03,Wunderground v.1.15,2013-05-17 04:24:00,
2013-05-16 21:29:00,46.8,43.4,30.02,SSW,199,2.0,3.0,88,0.00,,,0.03,Wunderground v.1.15,2013-05-17 04:29:00,
2013-05-16 21:34:00,46.8,43.4,30.02,South,173,3.0,5.0,88,0.00,,,0.03,Wunderground v.1.15,2013-05-17 04:34:00,
2013-05-16 21:39:00,46.7,43.3,30.02,South,172,4.0,5.0,88,0.00,,,0.03,Wunderground v.1.15,2013-05-17 04:39:00,
2013-05-16 21:44:00,46.8,43.7,30.02,SSW,198,4.0,6.0,89,0.00,,,0.03,Wunderground v.1.15,2013-05-17 04:44:00,
2013-05-16 21:50:00,46.9,43.8,30.02,SW,217,4.0,5.0,89,0.00,,,0.03,Wunderground v.1.15,2013-05-17 04:50:00,
2013-05-16 21:55:00,47.1,44.0,30.02,SSW,212,4.0,7.0,89,0.00,,,0.03,Wunderground v.1.15,2013-05-17 04:55:00,
2013-05-16 22:00:00,47.2,44.1,30.02,SSE,152,4.0,5.0,89,0.00,,,0.03,Wunderground v.1.15,2013-05-17 05:00:00,
2013-05-16 22:06:00,47.3,44.2,30.02,SSW,204,4.0,6.0,89,0.00,,,0.03,Wunderground v.1.15,2013-05-17 05:06:00,
2013-05-16 22:11:00,47.3,44.2,30.02,SW,236,4.0,4.0,89,0.00,,,0.03,Wunderground v.1.15,2013-05-17 05:11:00,
2013-05-16 22:16:00,47.3,44.2,30.02,SSW,206,4.0,7.0,89,0.00,,,0.03,Wunderground v.1.15,2013-05-17 05:16:00,
2013-05-16 22:21:00,47.2,44.4,30.02,SSW,198,4.0,7.0,90,0.00,,,0.03,Wunderground v.1.15,2013-05-17 05:21:00,
2013-05-16 22:26:00,47.0,44.2,30.02,SSW,198,5.0,8.0,90,0.00,,,0.03,Wunderground v.1.15,2013-05-17 05:26:00,
2013-05-16 22:31:00,46.8,44.3,30.01,SSW,201,5.0,6.0,91,0.00,,,0.03,Wunderground v.1.15,2013-05-17 05:31:00,
2013-05-16 22:36:00,46.7,44.2,30.02,SW,220,5.0,8.0,91,0.00,,,0.03,Wunderground v.1.15,2013-05-17 05:36:00,
2013-05-16 22:42:00,46.5,44.0,30.02,SSW,210,4.0,8.0,91,0.00,,,0.03,Wunderground v.1.15,2013-05-17 05:42:00,
2013-05-16 22:47:00,46.6,44.1,30.02,SW,216,4.0,8.0,91,0.00,,,0.03,Wunderground v.1.15,2013-05-17 05:47:00,
2013-05-16 22:52:00,46.7,44.5,30.02,SSW,213,4.0,8.0,92,0.00,,,0.03,Wunderground v.1.15,2013-05-17 05:52:00,
2013-05-16 22:57:00,46.8,44.6,30.02,South,185,3.0,8.0,92,0.00,,,0.03,Wunderground v.1.15,2013-05-17 05:57:00,
2013-05-16 23:02:00,46.9,44.7,30.02,South,171,4.0,6.0,92,0.00,,,0.03,Wunderground v.1.15,2013-05-17 06:02:00,
2013-05-16 23:08:00,46.9,44.7,30.02,South,169,5.0,10.0,92,0.00,,,0.03,Wunderground v.1.15,2013-05-17 06:08:00,
2013-05-16 23:13:00,46.9,44.7,30.02,SW,223,5.0,7.0,92,0.00,,,0.03,Wunderground v.1.15,2013-05-17 06:13:00,
2013-05-16 23:18:00,47.0,44.8,30.02,SW,234,5.0,7.0,92,0.00,,,0.03,Wunderground v.1.15,2013-05-17 06:18:00,
2013-05-16 23:23:00,47.0,44.5,30.02,SSW,198,4.0,6.0,91,0.00,,,0.03,Wunderground v.1.15,2013-05-17 06:23:00,
2013-05-16 23:28:00,46.7,43.9,30.02,South,185,4.0,6.0,90,0.00,,,0.03,Wunderground v.1.15,2013-05-17 06:28:00,
2013-05-16 23:34:00,46.5,44.0,30.02,SSW,211,4.0,11.0,91,0.00,,,0.03,Wunderground v.1.15,2013-05-17 06:34:00,
2013-05-16 23:39:00,46.5,44.0,30.02,SW,232,4.0,11.0,91,0.00,,,0.03,Wunderground v.1.15,2013-05-17 06:39:00,
2013-05-16 23:44:00,46.4,44.2,30.01,SSW,192,4.0,11.0,92,0.00,,,0.03,Wunderground v.1.15,2013-05-17 06:44:00,
2013-05-16 23:49:00,46.4,44.2,30.02,SSW,212,4.0,11.0,92,0.00,,,0.03,Wunderground v.1.15,2013-05-17 06:49:00,
2013-05-16 23:54:00,46.3,44.1,30.02,SSW,198,4.0,11.0,92,0.00,,,0.03,Wunderground v.1.15,2013-05-17 06:54:00,